This demonstration page uses our WeatherBlox Daily Observations layout. Learn more.

Left ArrowRight Arrow

39.92423, -83.80882

Hourly Observations for May 1, 2018

Temp ( °F °C ) Dew Point ( °F °C ) Humidity (%) Winds ( mph kmh ) Pressure ( in mb ) Visibility ( mi km ) Precip ( " mm )
12:56 am 00:56 Clear 54 12.2 33 0.6 45 45 SSW 6 9 30.14 1021 10 16.0934 0 0
1:56 am 01:56 Clear 54 12.2 34 1.1 47 47 SSW 5 7 30.13 1020 10 16.0934 0 0
2:56 am 02:56 Clear 52 11.1 34 1.1 50 50 SSW 6 9 30.12 1020 10 16.0934 0 0
3:56 am 03:56 Clear 52 11.1 34 1.1 50 50 SSW 6 9 30.12 1020 10 16.0934 0 0
4:56 am 04:56 Clear 51 10.6 33 0.6 50 50 SSW 5 7 30.13 1020 10 16.0934 0 0
5:56 am 05:56 Clear 49 9.4 34 1.1 56 56 SSW 7 11 30.15 1021 10 16.0934 0 0
6:56 am 06:56 Sunny 46 7.8 33 0.6 61 61 S 5 7 30.17 1022 10 16.0934 0 0
7:56 am 07:56 Sunny 54 12.2 35 1.7 49 49 S 5 7 30.18 1022 10 16.0934 0 0
8:56 am 08:56 Sunny 61 16.1 35 1.7 38 38 SSW 8 13 30.18 1022 10 16.0934 0 0
9:56 am 09:56 Sunny 66 18.9 37 2.8 34 34 SW 13 20 30.17 1022 10 16.0934 0 0
10:56 am 10:56 Sunny 71 21.7 39 3.9 31 31 WSW 10 17 30.17 1022 10 16.0934 0 0
11:56 am 11:56 Sunny 74 23.3 38 3.3 27 27 WSW 15 24 30.17 1022 10 16.0934 0 0
12:56 pm 12:56 Sunny 76 24.4 39 3.9 26 26 WSW 15 24 30.15 1021 10 16.0934 0 0
1:56 pm 13:56 Sunny 77 25 38 3.3 24 24 SW 10 17 30.13 1020 10 16.0934 0 0
2:56 pm 14:56 Sunny 79 26.1 38 3.3 23 23 SSW 14 22 30.12 1020 10 16.0934 0 0
3:56 pm 15:56 Sunny 79 26.1 37 2.8 22 22 WSW 20 31 30.1 1019 10 16.0934 0 0
4:56 pm 16:56 Sunny 80 26.7 37 2.8 21 21 WSW 18 30 30.1 1019 10 16.0934 0 0
5:56 pm 17:56 Sunny 79 26.1 37 2.8 22 22 SW 12 19 30.1 1019 10 16.0934 0 0
6:56 pm 18:56 Sunny 78 25.6 37 2.8 23 23 SSW 14 22 30.09 1019 10 16.0934 0 0
7:56 pm 19:56 Sunny 66 18.9 28 -2.2 24 24 SSW 7 11 30.16 1021 10 16.0934 0 0
8:56 pm 20:56 Clear 68 20 40 4.4 36 36 SSW 5 7 30.1 1019 10 16.0934 0 0
9:56 pm 21:56 Clear 68 20 40 4.4 36 36 S 7 11 30.09 1019 10 16.0934 0 0
10:56 pm 22:56 Clear 65 18.3 42 5.6 43 43 S 7 11 30.09 1019 10 16.0934 0 0
11:56 pm 23:56 Clear 65 18.3 43 6.1 45 45 S 7 11 30.09 1019 10 16.0934 0 0

Powered by AerisWeather